Pittsburgh, PA

8:47 PM EST on February 27, 2017 (GMT -0500)
Allegheny County

Weather History for KAGC - November, 2012

Change the Weather History Date:

Monday, November 19, 2012

  Actual Average Record
Temperature  
Mean Temperature 43 °F -  
Max Temperature 52 °F 46 °F 68 °F (2001)
Min Temperature 34 °F 30 °F 12 °F (2014)
Degree Days  
Heating Degree Days 22    
Moisture  
Dew Point 30 °F    
Average Humidity 61    
Maximum Humidity 82    
Minimum Humidity 45    
Precipitation  
Precipitation 0.00 in - - ()
Sea Level Pressure  
Sea Level Pressure 30.35 in    
Wind  
Wind Speed 3 mph (East)    
Max Wind Speed 5 mph    
Max Gust Speed -    
Visibility 9 miles    
Events      
Averages and records for this station are not official NWS values.
T = Trace of Precipitation, MM = Missing Value Source: NWS Daily Summary

Daily Weather History Graph

Daily Weather History Graph

Search for Another Location

Airport or City:

Trip Planner

Search our weather history database for the weather conditions in past years. The results will help you decide how hot, cold, wet, or windy it might be!

Date:

Astronomy

Nov. 19, 2012 Rise Set
Actual Time 7:10 AM EST 4:59 PM EST
Civil Twilight 6:41 AM EST 5:28 PM EST
Nautical Twilight 6:08 AM EST 6:01 PM EST
Astronomical Twilight 5:35 AM EST 6:34 PM EST
Moon 12:12 PM EST (11/19) 11:25 PM EST (11/19)
Length of Visible Light 10h 47m
Length of Day
9h 48m
Waxing Crescent, 40% of the Moon is Illuminated
Nov 19
Waxing Crescent
Nov 20
First Quarter
Nov 28
Full
Dec 6
Last Quarter
Dec 13
New

Hourly Weather History & Observations

Time (EST) Temp. Windchill Dew Point Humidity Pressure Visibility Wind Dir Wind Speed Gust Speed Precip Events Conditions
12:53 AM 39.0 °F 35.7 °F 27.0 °F 62% 30.44 in 10.0 mi East 4.6 mph - N/A   Clear
1:53 AM 37.9 °F - 26.1 °F 62% 30.43 in 10.0 mi Calm Calm - N/A   Clear
2:53 AM 37.0 °F 34.5 °F 27.0 °F 67% 30.44 in 10.0 mi ENE 3.5 mph - N/A   Clear
3:53 AM 36.0 °F 32.1 °F 27.0 °F 70% 30.42 in 10.0 mi East 4.6 mph - N/A   Clear
4:53 AM 35.1 °F 32.2 °F 27.0 °F 72% 30.42 in 10.0 mi ENE 3.5 mph - N/A   Clear
5:53 AM 35.1 °F 32.2 °F 28.0 °F 76% 30.43 in 9.0 mi ENE 3.5 mph - N/A   Clear
6:53 AM 34.0 °F 29.8 °F 28.9 °F 82% 30.43 in 5.0 mi NE 4.6 mph - N/A   Haze
7:53 AM 34.0 °F 31.0 °F 28.9 °F 82% 30.43 in 3.0 mi NE 3.5 mph - N/A   Haze
8:53 AM 39.9 °F 37.8 °F 32.0 °F 73% 30.42 in 6.0 mi ESE 3.5 mph - N/A   Haze
9:53 AM 43.0 °F 40.3 °F 33.1 °F 68% 30.42 in 10.0 mi SSE 4.6 mph - N/A   Clear
10:53 AM 46.9 °F - 32.0 °F 56% 30.40 in 10.0 mi SSE 3.5 mph - N/A   Clear
11:53 AM 48.9 °F - 33.1 °F 54% 30.37 in 10.0 mi Variable 3.5 mph - N/A   Clear
12:53 PM 50.0 °F - 33.1 °F 52% 30.34 in 10.0 mi Calm Calm - N/A   Clear
1:53 PM 52.0 °F - 30.9 °F 45% 30.32 in 10.0 mi Calm Calm - N/A   Clear
2:53 PM 51.1 °F - 32.0 °F 48% 30.31 in 10.0 mi East 3.5 mph - N/A   Clear
3:53 PM 51.1 °F - 32.0 °F 48% 30.30 in 10.0 mi Calm Calm - N/A   Clear
4:53 PM 50.0 °F - 30.9 °F 48% 30.30 in 10.0 mi Calm Calm - N/A   Clear
5:53 PM 48.9 °F - 30.9 °F 50% 30.29 in 10.0 mi Calm Calm - N/A   Clear
6:53 PM 48.0 °F - 30.9 °F 52% 30.28 in 10.0 mi NNE 3.5 mph - N/A   Clear
7:53 PM 46.9 °F - 30.9 °F 54% 30.28 in 10.0 mi Calm Calm - N/A   Clear
8:53 PM 46.0 °F - 32.0 °F 58% 30.27 in 10.0 mi Calm Calm - N/A   Clear
9:53 PM 46.0 °F - 32.0 °F 58% 30.25 in 10.0 mi Calm Calm - N/A   Clear
10:53 PM 43.0 °F - 32.0 °F 65% 30.23 in 10.0 mi Calm Calm - N/A   Clear
11:53 PM 43.0 °F - 32.0 °F 65% 30.22 in 10.0 mi Calm Calm - N/A   Clear